Flag for Germany Weather past 2 weeks in Offenbach, Hesse, Germany

Now
59 °F

Clear.


Feels Like: 58 °F
Forecast: 64 / 77 °F
Wind: 6 mph from Northeast

Location: Frankfurt-M-Flughafen Airport

Current Time: Aug 2, 2014 at 6:55:13 AM

Latest Report: Aug 2, 2014 at 6:20 AM


Visibility: 10 mi

Pressure: 29.77 "Hg

Humidity: 94%

Dew point: 57 °F

Location of OffenbachLocation

Historic Weather in Offenbach — Graph

°F

Offenbach temperature yesterday

Maximum temperature yesterday: 82 °F (at 5:20 PM)
Minimum temperature yesterday: 61 °F (at 1:50 AM)
Average temperature yesterday: 70 °F

Past Weeks' High & Low Weather Summary

 TemperatureHumidityPressure
High93 °F (Jul 19, 4:20 PM)100% (Jul 20, 11:20 PM)30.09 "Hg (Jul 20, 11:20 PM)
Low59 °F (Jul 26, 4:20 AM)23% (Jul 18, 6:20 PM)29.71 "Hg (Jul 29, 4:50 PM)
Average73 °F69%29.90 "Hg
* Reported Jul 18 5:20 AM — Aug 2 5:20 AM, Offenbach, Weather by CustomWeather, © 2014

Note: Actual official high and low records may vary slightly from our data, if they occured in-between our weather recording intervals... More about our weather records

Advertising

Offenbach weather history for previous 24 hours

 ConditionsComfort  
Time TempWeatherWind HumidityBarometerVisibility
5:20 AM
Aug 2
59 °FClear.7 mph94%29.77 "Hg10 mi
4:50 AM59 °FClear.7 mph94%29.77 "Hg10 mi
4:20 AM59 °FClear.5 mph94%29.77 "Hg10 mi
3:50 AM59 °FClear.6 mph94%29.80 "Hg10 mi
3:20 AM61 °FClear.5 mph88%29.80 "Hg10 mi
2:50 AM63 °FClear.6 mph88%29.80 "Hg10 mi
2:20 AM63 °FClear.2 mph83%29.80 "Hg10 mi
1:50 AM61 °FClear.3 mph88%29.80 "Hg10 mi
1:20 AM63 °FClear.2 mph83%29.83 "Hg10 mi
12:50 AM63 °FClear.2 mph83%29.83 "Hg10 mi
12:20 AM63 °FClear.2 mph83%29.80 "Hg10 mi
11:50 PM
Aug 1
64 °FClear.5 mph78%29.83 "Hg10 mi
11:20 PM66 °FClear.5 mph73%29.83 "Hg10 mi
10:50 PM66 °FClear.5 mph68%29.83 "Hg10 mi
10:20 PM68 °FClear.5 mph64%29.83 "Hg10 mi
9:50 PM70 °FSunny.5 mph57%29.83 "Hg10 mi
9:20 PM72 °FSunny.5 mph57%29.83 "Hg10 mi
8:50 PM75 °FSunny.5 mph50%29.80 "Hg10 mi
8:20 PM77 °FSunny.6 mph47%29.80 "Hg10 mi
7:50 PM79 °FSunny.8 mph45%29.80 "Hg10 mi
7:20 PM79 °FSunny.9 mph42%29.80 "Hg10 mi
6:50 PM79 °FSunny.8 mph42%29.83 "Hg10 mi
6:20 PM81 °FSunny.5 mph39%29.83 "Hg10 mi
5:50 PM81 °FSunny.10 mph39%29.83 "Hg10 mi
5:20 PM82 °FSunny.5 mph42%29.83 "Hg10 mi
4:50 PM81 °FSunny.8 mph42%29.83 "Hg10 mi
4:20 PM81 °FSunny.7 mph42%29.83 "Hg10 mi
3:50 PM79 °FSunny.3 mph45%29.83 "Hg10 mi
3:20 PM81 °FSunny.3 mph45%29.83 "Hg10 mi
2:50 PM81 °FPassing clouds.6 mph45%29.86 "HgN/A
2:20 PM79 °FSunny.3 mph45%29.86 "Hg10 mi
1:50 PM77 °FPassing clouds.5 mph51%29.86 "HgN/A
1:20 PM77 °FSunny.6 mph51%29.86 "Hg10 mi
12:50 PM79 °FPartly sunny.5 mph48%29.86 "HgN/A
12:20 PM77 °FPartly sunny.3 mph54%29.89 "HgN/A
11:50 AM75 °FPartly sunny.5 mph61%29.89 "HgN/A
11:20 AM75 °FPartly sunny.3 mph61%29.89 "HgN/A
10:50 AM72 °FBroken clouds.3 mph73%29.89 "HgN/A
10:20 AM72 °FSunny.5 mph69%29.89 "Hg10 mi
9:50 AM70 °FSunny.6 mph73%29.89 "Hg10 mi
9:20 AM68 °FSunny.7 mph73%29.92 "Hg10 mi
8:50 AM64 °FSunny.8 mph78%29.92 "Hg10 mi
8:20 AM63 °FSunny.6 mph83%29.92 "Hg10 mi
7:50 AM63 °FSunny.5 mph83%29.92 "Hg10 mi
7:20 AM61 °FSunny.5 mph88%29.92 "Hg10 mi
6:50 AM61 °FClear.6 mph88%29.92 "Hg10 mi
6:20 AM61 °FClear.6 mph88%29.92 "Hg10 mi
Weather by CustomWeather, © 2014

See weather overviewHow to use our weather pages